Regional Weather Roundup
Issued by NWS

Home | Current Version | Previous Version | Text Only | Print | Product List | Glossary On
Versions: 1 2 3 4 5 6 7 8 9 10 11 12 13 14 15 16 17 18 19 20 21 22 23 24 25 26 27 28 29 30 31 32 33 34 35 36 37 38 39 40 41 42 43 44 45 46 47 48 49 50
000
ASUS42 KTBW 061117
RWRFL
FLORIDA REGIONAL WEATHER ROUNDUP
NATIONAL WEATHER SERVICE TAMPA BAY RUSKIN FL
700 AM EDT WED MAY 06 2015

NOTE: "FAIR" INDICATES FEW OR NO CLOUDS BELOW 12,000 FEET WITH NO
SIGNIFICANT WEATHER AND/OR OBSTRUCTIONS TO VISIBILITY.


FLZ001>010-012>015-112-114-115-061200-
PANHANDLE FLORIDA

CITY           SKY/WX    TMP DP  RH WIND       PRES   REMARKS
PENSACOLA      CLEAR     66  62  87 E6        30.09S
PENSACOLA NAS  PTCLDY    68  65  90 NE7       30.09R
MILTON NAS     PTCLDY    62  59  90 E5        30.11
CRESTVIEW      CLEAR     57  56  96 NE3       30.13S
DUKE FIELD     FAIR      61  58  90 E2        30.10S
VALPARAISO     PTCLDY    66  60  81 NE8       30.11R
MARY ESTHER    CLEAR     66  61  84 E2        30.09S
PANAMA CITY    FAIR      64  60  87 NE6       30.10S
TYNDALL AFB    PTCLDY    66  62  86 E9        30.10S
APALACHICOLA   MOCLDY    68  62  81 NE6       30.11R

STATION/POSITION SKY/WX   TEMP    WIND        PRES    WAVE   SWELL
                          AIR SEA DIR/SP/G            HT/PER HT/PER
                          (F)     (DEG/KT/KT) (MB)    (FT/S) (FT/S)
30.1N   87.6W              73 74   80/ 16/ 17 1017.7R   4/ 7   2/ 7
29.2N   88.2W              74 75  100/ 16/ 17 1017.7R   4/ 7   2/ 8
28.8N   86.0W              74 75  100/ 17/ 21 1017.8    4/ 6
PANAMA CITY BEAC           68 76   90/  6/  9 1019.1R
CAPE SAN BLAS    NOT AVBL
TOWER C                    71      70/ 13/ 14 1019.0R
28.5N   84.5W              73 74   80/ 14/ 17 1018.2R   4/ 6

$$
FLZ011-016>038-118-127-128-134-139-239-061200-
NORTH FLORIDA

CITY           SKY/WX    TMP DP  RH WIND       PRES   REMARKS
MARIANNA       MOCLDY    64  62  93 NE3       30.13S
TALLAHASSEE    PTCLDY    66  61  84 NE6       30.12S
PERRY          CLEAR     62  61  97 N5        30.12S
CROSS CITY       N/A     60  59  96 CALM      30.09S
LAKE CITY      FAIR      63  63 100 NE5       30.11R
GAINESVILLE    CLOUDY    65  64  97 N6        30.09R
MAYPORT NAS    CLOUDY    70  66  87 NE15      30.08F
JACKSONVILLE   MOCLDY    66  65  96 N6        30.09F
JAX NAS        CLOUDY    73  67  81 N7        30.10S
JAX CRAIG      CLOUDY    69  65  86 NE7       30.09S
JAX CECIL      MOCLDY    66  66 100 NE12      30.10R
FERNANDINA BEA CLOUDY    73  70  88 NE10      30.08S
ST AUGUSTINE   CLOUDY    70  69  97 N7        30.09S FOG

STATION/POSITION SKY/WX   TEMP    WIND        PRES    WAVE   SWELL
                          AIR SEA DIR/SP/G            HT/PER HT/PER
                          (F)     (DEG/KT/KT) (MB)    (FT/S) (FT/S)
SHELL POINT                65      40/  3/  8   N/A
KEATON BEACH               62      30/  6/  8 1019.3F
CEDAR KEY                  65      30/  7/  8 1019.1R
FERNANDINA                 71 74   30/  7/ 12 1018.6S
30.7N   81.3W                 71                N/A     5/ 8
MAYPORT                    71 74   40/ 13/ 17 1018.9S
31.4N   80.9W              70 70   40/ 16/ 17 1019.7F   5/ 7   3/ 7
ST AUGUSTINE               71 72  360/ 19/ 20 1019.2R

$$
FLZ040-043>046-052-053-057-058-063-144-061200-
INTERIOR CENTRAL FLORIDA

CITY           SKY/WX    TMP DP  RH WIND       PRES   REMARKS
OCALA          CLOUDY    66  63  88 N6        30.08R
THE VILLAGES     N/A     68  68 100 N3        29.97R
LEESBURG       CLOUDY    68  66  93 N8        30.07R
SANFORD        CLOUDY    69  67  93 N5        30.05S
ORLANDO EXEC   CLOUDY    70  66  87 NW5       30.05R
ORLANDO INTL   CLOUDY    70  67  90 N6        30.05R
WINTER HAVEN   CLOUDY    70  67  90 N7        30.06R
LAKELAND       CLEAR     66  64  94 N3        30.05R
BARTOW         FAIR      68  68 100 N5        30.05S
OKEECHOBEE     CLOUDY    64  64 100 CALM      30.03F

$$
FLZ041-047-054-059-064-141-147-061200-
EAST CENTRAL FLORIDA

CITY           SKY/WX    TMP DP  RH WIND       PRES   REMARKS
ORMOND BEACH   PTCLDY    68  66  94 CALM      30.16
DAYTONA BEACH  CLOUDY    70  68  93 N3        30.05S
DELAND           N/A     68  68 100 NW3       30.07R
NEW SMYRNA BEA PTCLDY    68  68 100 NW6       30.06
JFK SPACE CTR  CLOUDY    69  67  94 N5        30.03R
TITUSVILLE     MOCLDY    66  66 100 CALM      30.04
CAPE CANAVERAL CLOUDY    70  69  98 NW5       30.02S
PATRICK AFB    CLOUDY    71  69  93 NE6       30.03R
MELBOURNE      CLOUDY    71  68  90 N6        30.03R
VERO BEACH     CLOUDY    70  66  87 NE8       30.02R
FT PIERCE      LGT RAIN  69  67  93 NE6       30.01S
STUART         LGT RAIN  68  66  94 MISG      30.02R

STATION/POSITION SKY/WX   TEMP    WIND        PRES    WAVE   SWELL
                          AIR SEA DIR/SP/G            HT/PER HT/PER
                          (F)     (DEG/KT/KT) (MB)    (FT/S) (FT/S)
28.5N   80.2W              74 78   60/  8/ 10 1016.7R
28.9N   78.5W              71 78   40/ 16/ 19 1015.6R
TRIDENT PIER               69 76   10/  4/  5 1017.3R
28.4N   80.5W                 75                N/A     3/ 8
27.5N   80.2W                 77                N/A     5/ 7   2/11

$$
FLZ050-056-061-142-242-148-248-149-249-151-251-155-255-
160-260-061200-
WEST CENTRAL FLORIDA

CITY           SKY/WX    TMP DP  RH WIND       PRES   REMARKS
CRYSTAL RIVER  FAIR      63  63 100 CALM      30.08R
INVERNESS      CLOUDY   N/A N/A N/A N5        30.08R
BROOKSVILLE    CLOUDY    67  65  93 N8        30.08R
CLEARWATER     CLEAR     68  66  93 N6        30.05S
TAMPA INTL     PTCLDY    68  64  87 N6        30.06R
TAMPA EXEC     PTCLDY    68  64  88 CALM      30.06R
PLANT CITY     PTCLDY    68  66  94 CALM      30.07S
MACDILL AFB    CLEAR     66  65  97 NE3       30.05R
PETER O KNIGHT PTCLDY    70  66  88 NE7       30.06R
ST PETERSBURG  CLEAR     70  67  90 N5        30.03S
SARASOTA       CLEAR     67  64  90 N6        30.03R
VENICE         FAIR      68  66  94 N5        30.04S

STATION/POSITION SKY/WX   TEMP    WIND        PRES    WAVE   SWELL
                          AIR SEA DIR/SP/G            HT/PER HT/PER
                          (F)     (DEG/KT/KT) (MB)    (FT/S) (FT/S)
CEDAR KEY                  65      30/  7/  8 1019.1R
28.5N   84.5W              73 74   80/ 14/ 17 1018.2R   4/ 6
27.3N   84.2W                 77                N/A     4/ 5
CLEARWATER BEACH                   30/  4/  6 1017.7F
MIDDLE TAMPA BAY           71      40/ 10/ 11 1017.4F
VENICE                     68 78   10/  5/  6 1016.7S

$$
FLZ066-069-070-075>078-162-262-165-265-061200-
SOUTHWEST FLORIDA AND KEYS

CITY           SKY/WX    TMP DP  RH WIND       PRES   REMARKS
PUNTA GORDA    MOCLDY    67  66  97 NE5       30.05R
FT MYERS       PTCLDY    68  67  96 CALM      30.02R
SOUTHWEST INTL PTCLDY    67  65  93 E6        30.03R
NAPLES         PTCLDY    69  67  93 NE3       30.01S
MARCO ISLAND   CLOUDY    68  63  83 NE6       30.01S
IMMOKALEE      SUNNY    N/A N/A N/A CALM      30.03R
MARATHON       PTCLDY    72  71  97 N8        30.02R
KEY WEST NAS   PTCLDY    71  69  93 E6        30.02R
KEY WEST INTL  CLEAR     72  70  93 E3        30.02R

STATION/POSITION SKY/WX   TEMP    WIND        PRES    WAVE   SWELL
                          AIR SEA DIR/SP/G            HT/PER HT/PER
                          (F)     (DEG/KT/KT) (MB)    (FT/S) (FT/S)
VENICE                     68 78   10/  5/  6 1016.7S
NAPLES                     70 76   60/  3/  5 1016.0F
26.0N   85.6W              77 81   80/ 12/ 16 1016.4R   4/ 6   3/ 6
DRY TORTUGAS               77      80/ 12/ 13 1015.9S
NW FL BAY                  71      20/  7/  8 1016.5
SAND KEY                   75      50/ 10/ 11 1016.3R
SOMBRERO KEY               72      20/ 11/ 12 1017.0R
LONG KEY                   71 75   20/  8/  9 1017.3R
MOLASSES REEF              71 78  350/ 11/ 12 1016.2R

$$
FLZ067-068-071>074-168-172>174-061200-
SOUTHEAST FLORIDA

CITY           SKY/WX    TMP DP  RH WIND       PRES   REMARKS
W PALM BEACH   LGT RAIN  70  68  93 NW9       29.99R
FT LAUDER-EXEC CLOUDY    66  66 100 W7        29.99R
FT LAUDERDALE  CLOUDY    69  68  96 W8        29.99R
POMPANO BEACH  CLOUDY    68  67  96 W9        29.99R
PEMBROKE PINES MOCLDY    68  66  93 W7        30.01R
OPA LOCKA      MOCLDY    68  67  96 W7        30.00S
MIAMI          MOCLDY    69  66  90 W5        30.01R
WEST KENDALL   PTCLDY    65  65 100 W5        30.01S
HOMESTEAD      CLEAR     67  66  95 W6        30.00S

STATION/POSITION SKY/WX   TEMP    WIND        PRES    WAVE   SWELL
                          AIR SEA DIR/SP/G            HT/PER HT/PER
                          (F)     (DEG/KT/KT) (MB)    (FT/S) (FT/S)
PORT EVERGLADES            69     280/  8/ 10 1015.4R
VIRGINIA KEY               70 76  290/  4/  7 1015.0S
LAKE WORTH                 69 77  310/  7/ 17 1014.3R
SETTLEMENT POINT           72     120/  6/  7 1015.7R

$$




USA.gov is the U.S. government's official web portal to all federal, state and local government web resources and services.